Location: Poughquag
(41.6090°N, 73.6820°W)
Time: 18:54:31
(UTC-05:00)

A-11 Canister half - Pass Details

Date: 08 December 2023
Orbit: 1526 x 1682 km, 47.3° (Epoch: 23 February)

Event Time Altitude Azimuth Distance (km) Brightness Sun altitude
Rises 19:58:43 0° 265° (W) 4,928 12.5 -39.2°
Reaches altitude 10° 20:01:57 10° 268° (W) 3,943 11.8 -39.8°
Enters shadow 20:11:08 64° 323° (NW) 1,827 9.3 -41.5°
